Tracking 18624 objects as of 1-May-2017
HD Live streaming from Space Station
objects crossing your sky now

COSMOS 1803

Track COSMOS 1803 now!
10-day predictions
COSMOS 1803 is classified as:


NORAD ID: 17177
Int'l Code: 1986-094A
Perigee: 1,503.8 km
Apogee: 1,510.6 km
Inclination: 82.6 °
Period: 116.0 minutes
Semi major axis: 7878 km
RCS: 10.2434 m2 (large)
Launch date: December 2, 1986
Source: Commonwealth of Independent States (former USSR) (CIS)
Launch site: PLESETSK MISSILE AND SPACE COMPLEX (PKMTR)
Your satellite tracking list
Your tracking list is empty





NASA's NSSDC Master Catalog

Two Line Element Set (TLE):
1 17177U 86094A   17119.91005483 +.00000003 +00000-0 -48803-4 0  9990
2 17177 082.6056 250.4683 0004338 147.8463 332.0591 12.41551913378060
Source of the keplerian elements: AFSPC